INTELSAT 33E DEB, 64403

Orbit data source: Space-Track

INTELSAT 33E DEB, 64403 is space debris in GEO originally from a launch on Wed, 24 Aug 2016 UTC launched from the French Guiana (FRGUI). Debris objects in space refer to the collection of defunct objects orbiting the Earth. Examples of debris include non-operational satellites, rocket bodies, and fragments generated from explosions, collisions, or faulty payload assembly.

Not visible in the next 10 days
Identifier
64403, 2016-053AH
Orbit
GEO
Country
Flag of UnknownUnknown / ITSO
Related business
Manufacturer
Boeing/ES
Mission
Spacecraft
Bus & Motor
Unknown
Mass
Unknown
Launch date (UTC)
2016-08-24 (9 years ago)
Launch vehicle
Unknown
Launch site
French Guiana (FRGUI)
Object type
Payload
Rocket body
Debris
Shape & HBR
Unknown shape, 1.1 m
Radar Cross Section
RCS unknown

Expand to show TLE details & history
Last TLE update: 1 day ago

TLE from 1 day ago
0 INTELSAT 33E DEB
1 64403U 16053AH  25339.78111474  .00000101  00000-0  00000-0 0  9999
2 64403   0.9631  59.7914 0054289 339.7548 320.8659  1.00712968  4012
Epoch: 2025-12-05T18:44Z
TLE epoch observation values (Epoch: 2025-12-05T18:44:48.313Z)
Latitude
-0.82058°
Longitude
3.98406°
Altitude
35,486.862 km
Speed
3.092 km/s
True Right ascension
00h 00m 00s
True Declination
0° 49' 11"
Sunlit
Object was in daylight at epoch
Visualization orbit readout
Latitude
Unknown
Longitude
Unknown
Altitude
Unknown
Speed
Unknown
Apparent Right ascension
Unknown
Apparent Declination
Unknown
Sunlit
N/A
Visualization observer readout
Local Sidereal Time
01:05:38
Azimuth
Unknown
Elevation
Unknown
Doppler factor
Unknown
Orbital elements
Apogee altitude
35,892.685 km
Perigee altitude
35,436.195 km
Semi-major axis
42,042.577 km
Eccentricity
0.00543
Inclination
0.9631°
RAAN
59.7914°
Arg. of periapsis
339.7548°
True anomaly
320.47119°
Mean anomaly
320.8659°
Eccentric anomaly
320.66875°
Mean motion
0.25177 °/min
Orbital period
1,429.86 mins
BSTAR
0
Loading maneuver chart data...
Computing Atmospheric mass density...
Loading historical data...
Loading historical data...
Loading historical data...
Loading historical data...
Loading historical data...
Loading historical data...
Loading historical data...

Documentation

Showing up to 5 results
|